Location: �quirre
(50.4736°N, 2.2351°E)
Time: 17:50:45
(UTC+00:00)

Cosmos 990 Rocket - Pass Details

Date: 07 August 2020
Orbit: 747 x 768 km, 74.0° (Epoch: 25 September)

Event Time Altitude Azimuth Distance (km) Brightness Sun altitude
Exits shadow 02:23:30 18° 179° (S) 1,777 5.4 -15.9°
Maximum altitude 02:27:10 54° 107° (ESE) 914 4.5 -15.5°
Drops below altitude 10° 02:32:12 10° 32° (NNE) 2,288 7.8 -15.0°
Sets 02:34:36 0° 28° (NNE) 3,214 8.9 -14.8°
